When you browse on this site, cookies collect data to enhance your experience and personalize the content and advertising you see.
Visit our Privacy Policy to learn more. By continuing to use the site, you agree to this use of cookies and data.
  • In Österreich
  • Länderverzeichnis
  • Für 7 Tage
  • Wassertemperatur
  • Wetterkarte
  • News
  • Widgets
  • user-avatar
    Anmelden

    Stündliche Wetter Buenos Aires

    Heute, 12 Dezember, Donnerstag

    Zeit Temperatur Niederschläge Wind Luftdruck Luftfeuchtigkeit
    00:00 +27°C° 0 mm 5 m/S 752 mmHg 63%
    01:00 +26°C° 0 mm 4 m/S 752 mmHg 65%
    02:00 +25°C° 0 mm 4 m/S 751 mmHg 62%
    03:00 +25°C° 0 mm 5 m/S 752 mmHg 55%
    04:00 +23°C° 0 mm 6 m/S 752 mmHg 48%
    05:00 +23°C° 0 mm 7 m/S 752 mmHg 40%
    06:00 +23°C° 0 mm 7 m/S 753 mmHg 35%
    07:00 +24°C° 0 mm 7 m/S 754 mmHg 30%
    08:00 +24°C° 0 mm 7 m/S 755 mmHg 29%
    09:00 +26°C° 0 mm 7 m/S 755 mmHg 26%
    10:00 +28°C° 0 mm 7 m/S 755 mmHg 23%
    11:00 +29°C° 0 mm 7 m/S 756 mmHg 20%
    12:00 +29°C° 0 mm 7 m/S 756 mmHg 18%
    13:00 +30°C° 0 mm 7 m/S 756 mmHg 16%
    14:00 +30°C° 0 mm 7 m/S 756 mmHg 14%
    15:00 +30°C° 0 mm 6 m/S 756 mmHg 14%
    16:00 +29°C° 0 mm 6 m/S 756 mmHg 15%
    17:00 +29°C° 0 mm 5 m/S 756 mmHg 15%
    18:00 +27°C° 0 mm 5 m/S 757 mmHg 16%
    19:00 +26°C° 0 mm 6 m/S 758 mmHg 16%
    20:00 +24°C° 0 mm 6 m/S 759 mmHg 17%
    21:00 +23°C° 0 mm 6 m/S 759 mmHg 20%
    22:00 +21°C° 0 mm 7 m/S 760 mmHg 23%
    23:00 +20°C° 0 mm 7 m/S 760 mmHg 26%

    Morgen, 13 Dezember, Freitag

    Zeit Temperatur Niederschläge Wind Luftdruck Luftfeuchtigkeit
    00:00 +19°C° 0 mm 6 m/S 760 mmHg 28%
    01:00 +17°C° 0 mm 5 m/S 761 mmHg 29%
    02:00 +17°C° 0 mm 5 m/S 761 mmHg 31%
    03:00 +17°C° 0 mm 4 m/S 761 mmHg 31%
    04:00 +17°C° 0 mm 4 m/S 761 mmHg 31%
    05:00 +17°C° 0 mm 4 m/S 761 mmHg 31%
    06:00 +18°C° 0 mm 4 m/S 761 mmHg 29%
    07:00 +20°C° 0 mm 4 m/S 761 mmHg 27%
    08:00 +21°C° 0 mm 3 m/S 761 mmHg 24%
    09:00 +24°C° 0 mm 3 m/S 761 mmHg 24%
    10:00 +25°C° 0 mm 3 m/S 760 mmHg 23%
    11:00 +27°C° 0 mm 3 m/S 760 mmHg 23%
    12:00 +28°C° 0 mm 3 m/S 759 mmHg 20%
    13:00 +29°C° 0 mm 3 m/S 759 mmHg 18%
    14:00 +30°C° 0 mm 3 m/S 758 mmHg 15%
    15:00 +30°C° 0 mm 4 m/S 757 mmHg 17%
    16:00 +29°C° 0 mm 5 m/S 757 mmHg 19%
    17:00 +29°C° 0 mm 5 m/S 756 mmHg 21%
    18:00 +28°C° 0 mm 6 m/S 756 mmHg 26%
    19:00 +26°C° 0 mm 7 m/S 757 mmHg 32%
    20:00 +24°C° 0 mm 7 m/S 757 mmHg 38%
    21:00 +24°C° 0 mm 7 m/S 757 mmHg 37%
    22:00 +24°C° 0 mm 7 m/S 757 mmHg 36%
    23:00 +24°C° 0 mm 7 m/S 757 mmHg 35%

    übermorgen, 14 Dezember, Samstag

    Zeit Temperatur Niederschläge Wind Luftdruck Luftfeuchtigkeit
    00:00 +24°C° 0 mm 7 m/S 756 mmHg 35%
    01:00 +24°C° 0 mm 7 m/S 756 mmHg 35%
    02:00 +23°C° 0 mm 7 m/S 756 mmHg 36%
    03:00 +23°C° 0 mm 7 m/S 756 mmHg 37%
    04:00 +23°C° 0 mm 7 m/S 757 mmHg 38%
    05:00 +22°C° 0 mm 6 m/S 757 mmHg 40%
    06:00 +24°C° 0 mm 6 m/S 757 mmHg 37%
    07:00 +26°C° 0 mm 5 m/S 758 mmHg 34%
    08:00 +27°C° 0 mm 5 m/S 758 mmHg 30%
    09:00 +29°C° 0 mm 4 m/S 757 mmHg 27%
    10:00 +31°C° 0 mm 3 m/S 757 mmHg 23%
    11:00 +35°C° 0 mm 3 m/S 756 mmHg 19%
    12:00 +36°C° 0 mm 3 m/S 756 mmHg 17%
    13:00 +37°C° 0 mm 3 m/S 755 mmHg 15%
    14:00 +38°C° 0 mm 3 m/S 754 mmHg 14%
    15:00 +37°C° 0 mm 3 m/S 754 mmHg 15%
    16:00 +37°C° 0 mm 4 m/S 753 mmHg 16%
    17:00 +36°C° 0 mm 4 m/S 753 mmHg 17%
    18:00 +35°C° 0 mm 4 m/S 753 mmHg 21%
    19:00 +33°C° 0 mm 4 m/S 753 mmHg 24%
    20:00 +32°C° 0 mm 4 m/S 753 mmHg 27%
    21:00 +30°C° 0 mm 4 m/S 754 mmHg 35%
    22:00 +30°C° 0 mm 3 m/S 754 mmHg 43%
    23:00 +29°C° 0 mm 3 m/S 754 mmHg 51%

    15 Dezember, Sonntag

    Zeit Temperatur Niederschläge Wind Luftdruck Luftfeuchtigkeit
    00:00 +27°C° 2 mm 4 m/S 754 mmHg 56%
    01:00 +26°C° 2 mm 5 m/S 754 mmHg 61%
    02:00 +23°C° 2 mm 5 m/S 754 mmHg 66%
    03:00 +23°C° 1.5 mm 5 m/S 753 mmHg 66%
    04:00 +23°C° 1.5 mm 5 m/S 753 mmHg 65%
    05:00 +23°C° 1.5 mm 5 m/S 753 mmHg 65%
    06:00 +23°C° 0.1 mm 5 m/S 753 mmHg 64%
    07:00 +25°C° 0.1 mm 5 m/S 754 mmHg 62%
    08:00 +25°C° 0.1 mm 5 m/S 754 mmHg 61%
    09:00 +27°C° 0 mm 5 m/S 754 mmHg 55%
    10:00 +28°C° 0 mm 5 m/S 754 mmHg 48%
    11:00 +29°C° 0 mm 5 m/S 754 mmHg 42%
    12:00 +30°C° 0 mm 5 m/S 753 mmHg 39%
    13:00 +32°C° 0 mm 5 m/S 753 mmHg 37%
    14:00 +33°C° 0 mm 5 m/S 753 mmHg 34%
    15:00 +30°C° 0.2 mm 5 m/S 753 mmHg 41%
    16:00 +28°C° 0.2 mm 6 m/S 753 mmHg 48%
    17:00 +26°C° 0.2 mm 6 m/S 753 mmHg 55%
    18:00 +26°C° 0.2 mm 6 m/S 753 mmHg 55%
    19:00 +24°C° 0.2 mm 6 m/S 754 mmHg 56%
    20:00 +25°C° 0.2 mm 5 m/S 755 mmHg 57%
    21:00 +23°C° 0 mm 4 m/S 755 mmHg 59%
    22:00 +23°C° 0 mm 4 m/S 755 mmHg 61%
    23:00 +22°C° 0 mm 3 m/S 755 mmHg 62%

    16 Dezember, Montag

    Zeit Temperatur Niederschläge Wind Luftdruck Luftfeuchtigkeit
    00:00 +23°C° 0 mm 2 m/S 754 mmHg 63%
    01:00 +21°C° 0 mm 2 m/S 754 mmHg 64%
    02:00 +22°C° 0 mm 1 m/S 754 mmHg 65%
    03:00 +22°C° 0 mm 1 m/S 755 mmHg 66%
    04:00 +21°C° 0 mm 1 m/S 755 mmHg 66%
    05:00 +21°C° 0 mm 1 m/S 755 mmHg 67%
    06:00 +23°C° 0 mm 1 m/S 756 mmHg 60%
    07:00 +25°C° 0 mm 1 m/S 756 mmHg 53%
    08:00 +26°C° 0 mm 1 m/S 757 mmHg 46%
    09:00 +28°C° 0 mm 2 m/S 756 mmHg 42%
    10:00 +29°C° 0 mm 2 m/S 756 mmHg 37%
    11:00 +30°C° 0 mm 2 m/S 756 mmHg 33%
    12:00 +30°C° 0 mm 2 m/S 756 mmHg 31%
    13:00 +31°C° 0 mm 3 m/S 755 mmHg 29%
    14:00 +31°C° 0 mm 3 m/S 754 mmHg 27%
    15:00 +32°C° 0 mm 4 m/S 754 mmHg 27%
    16:00 +30°C° 0 mm 5 m/S 754 mmHg 28%
    17:00 +29°C° 0 mm 5 m/S 754 mmHg 29%
    18:00 +28°C° 0 mm 6 m/S 755 mmHg 36%
    19:00 +27°C° 0 mm 6 m/S 756 mmHg 44%
    20:00 +24°C° 0 mm 6 m/S 756 mmHg 51%
    21:00 +25°C° 0 mm 5 m/S 756 mmHg 55%
    22:00 +23°C° 0 mm 4 m/S 756 mmHg 60%
    23:00 +22°C° 0 mm 4 m/S 757 mmHg 64%

    17 Dezember, Dienstag

    Zeit Temperatur Niederschläge Wind Luftdruck Luftfeuchtigkeit
    00:00 +22°C° 0 mm 4 m/S 756 mmHg 65%
    01:00 +22°C° 0 mm 4 m/S 756 mmHg 66%
    02:00 +22°C° 0 mm 4 m/S 756 mmHg 67%
    03:00 +21°C° 0 mm 4 m/S 756 mmHg 68%
    04:00 +21°C° 0 mm 4 m/S 756 mmHg 68%
    05:00 +21°C° 0 mm 4 m/S 756 mmHg 68%
    06:00 +22°C° 0 mm 4 m/S 756 mmHg 63%
    07:00 +23°C° 0 mm 4 m/S 756 mmHg 58%
    08:00 +26°C° 0 mm 4 m/S 757 mmHg 52%
    09:00 +28°C° 0 mm 4 m/S 756 mmHg 45%
    10:00 +30°C° 0 mm 3 m/S 756 mmHg 39%
    11:00 +33°C° 0 mm 3 m/S 755 mmHg 32%
    12:00 +34°C° 0 mm 3 m/S 755 mmHg 29%
    13:00 +34°C° 0 mm 3 m/S 754 mmHg 26%
    14:00 +35°C° 0 mm 3 m/S 753 mmHg 23%
    15:00 +35°C° 0 mm 3 m/S 753 mmHg 23%
    16:00 +35°C° 0 mm 4 m/S 753 mmHg 23%
    17:00 +35°C° 0 mm 4 m/S 752 mmHg 23%
    18:00 +33°C° 0 mm 5 m/S 753 mmHg 29%
    19:00 +32°C° 0 mm 5 m/S 753 mmHg 35%
    20:00 +29°C° 0 mm 6 m/S 753 mmHg 41%
    21:00 +29°C° 0 mm 6 m/S 754 mmHg 42%
    22:00 +28°C° 0 mm 7 m/S 754 mmHg 44%
    23:00 +28°C° 0 mm 7 m/S 754 mmHg 45%
    Mehr zeigen